| time (UTC) | temp F | wind direction | speed MPH | gust MPH | rain 1hr in | rain 24hr in | rain mn in | humidity % | barometer mb |
| 20260906154525 | 77 | 358 | 3.0 | 8.0 | 0.00 | 0.00 | 0.00 | 69 | 1018.4 |
| 20260906153028 | 77 | 17 | 3.0 | 8.0 | 0.00 | 0.00 | 0.00 | 69 | 1018.5 |
| 20260906151518 | 76 | 50 | 3.0 | 7.0 | 0.00 | 0.00 | 0.00 | 70 | 1018.5 |
| 20260906150016 | 76 | 14 | 2.0 | 7.0 | 0.00 | 0.00 | 0.00 | 71 | 1018.3 |
| 20260906144514 | 75 | 43 | 2.0 | 8.0 | 0.00 | 0.00 | 0.00 | 72 | 1018.3 |
| 20260906143006 | 74 | 39 | 4.0 | 8.0 | 0.00 | 0.00 | 0.00 | 73 | 1018.2 |
| 20260906141559 | 74 | 10 | 3.0 | 7.0 | 0.00 | 0.00 | 0.00 | 74 | 1018.2 |
| 20260906140059 | 73 | 77 | 3.0 | 9.0 | 0.00 | 0.00 | 0.00 | 75 | 1018.1 |
| 20260906134555 | 73 | 4 | 4.0 | 8.0 | 0.00 | 0.00 | 0.00 | 74 | 1018.3 |
| 20260906133107 | 73 | 79 | 2.0 | 6.0 | 0.00 | 0.00 | 0.00 | 76 | 1017.9 |
| 20260906131551 | 71 | 44 | 2.0 | 7.0 | 0.00 | 0.00 | 0.00 | 78 | 1017.9 |
| 20260906130049 | 71 | 69 | 2.0 | 6.0 | 0.00 | 0.00 | 0.00 | 79 | 1017.9 |
| 20260906124542 | 70 | 19 | 1.0 | 9.0 | 0.00 | 0.00 | 0.00 | 80 | 1017.9 |
| 20260906123039 | 69 | 31 | 1.0 | 5.0 | 0.00 | 0.00 | 0.00 | 82 | 1017.9 |
| 20260906121528 | 68 | 1 | 1.0 | 4.0 | 0.00 | 0.00 | 0.00 | 84 | 1017.7 |
| 20260906120026 | 67 | 323 | 0.0 | 0.0 | 0.00 | 0.00 | 0.00 | 85 | 1017.7 |
| 20260906114526 | 67 | 323 | 0.0 | 0.0 | 0.00 | 0.00 | 0.00 | 90 | 1017.5 |
| 20260906113018 | 63 | 323 | 0.0 | 0.0 | 0.00 | 0.00 | 0.00 | 92 | 1017.2 |
| 20260906111512 | 0 | 0.0 | 0.0 | 0.00 | 0.00 | 0.00 | 1017.0 | ||
| 20260906110006 | 0 | 0.0 | 0.0 | 0.00 | 0.00 | 0.00 | 1017.0 | ||
| 20260906104502 | 0 | 0.0 | 0.0 | 0.00 | 0.00 | 0.00 | 1016.6 | ||
| 20260906103056 | 0 | 0.0 | 0.0 | 0.00 | 0.00 | 0.00 | 1016.4 | ||
| 20260906101550 | 0 | 0.0 | 0.0 | 0.00 | 0.00 | 0.00 | 1016.4 | ||
| 20260906100049 | 0 | 0.0 | 0.0 | 0.00 | 0.00 | 0.00 | 1016.2 | ||
| 20260906094546 | 0 | 0.0 | 0.0 | 0.00 | 0.00 | 0.00 | 1016.0 | ||
| 20260906093046 | 0 | 0.0 | 0.0 | 0.00 | 0.00 | 0.00 | 1015.9 | ||
| 20260906091529 | 63 | 338 | 0.0 | 0.0 | 0.00 | 0.00 | 0.00 | 91 | 1015.7 |
| 20260906090043 | 63 | 338 | 0.0 | 0.0 | 0.00 | 0.00 | 0.00 | 91 | 1015.5 |
| 20260906084530 | 63 | 338 | 0.0 | 0.0 | 0.00 | 0.00 | 0.00 | 91 | 1015.6 |
| 20260906083033 | 64 | 338 | 0.0 | 0.0 | 0.00 | 0.00 | 0.00 | 90 | 1015.5 |
| 20260906081519 | 64 | 338 | 0.0 | 0.0 | 0.00 | 0.00 | 0.00 | 90 | 1015.4 |
| 20260906080017 | 64 | 338 | 0.0 | 0.0 | 0.00 | 0.00 | 0.00 | 90 | 1015.3 |
| 20260906074531 | 64 | 338 | 0.0 | 0.0 | 0.00 | 0.00 | 0.00 | 90 | 1015.2 |
| 20260906073016 | 65 | 338 | 0.0 | 0.0 | 0.00 | 0.00 | 0.00 | 89 | 1015.2 |
| 20260906071511 | 66 | 338 | 0.0 | 0.0 | 0.00 | 0.00 | 0.00 | 88 | 1015.1 |
| 20260906070010 | 66 | 338 | 0.0 | 0.0 | 0.00 | 0.00 | 0.00 | 88 | 1015.1 |
| 20260906064507 | 65 | 338 | 0.0 | 0.0 | 0.00 | 0.00 | 0.00 | 89 | 1015.3 |
| 20260906063006 | 65 | 338 | 0.0 | 0.0 | 0.00 | 0.00 | 0.00 | 90 | 1015.3 |
| 20260906061505 | 65 | 338 | 0.0 | 0.0 | 0.00 | 0.00 | 0.00 | 92 | 1015.3 |
| 20260906060100 | 64 | 338 | 0.0 | 0.0 | 0.00 | 0.00 | 0.00 | 92 | 1015.2 |
| 20260906054603 | 65 | 338 | 0.0 | 0.0 | 0.00 | 0.00 | 0.00 | 92 | 1015.3 |
| 20260906053108 | 65 | 338 | 0.0 | 0.0 | 0.00 | 0.00 | 0.00 | 92 | 1015.4 |
| 20260906051551 | 65 | 341 | 0.0 | 0.0 | 0.00 | 0.00 | 0.00 | 93 | 1015.4 |
| 20260906050050 | 65 | 341 | 0.0 | 0.0 | 0.00 | 0.00 | 0.00 | 92 | 1015.5 |
| 20260906044547 | 65 | 341 | 0.0 | 0.0 | 0.00 | 0.00 | 0.00 | 92 | 1015.6 |
| 20260906043145 | 65 | 341 | 0.0 | 0.0 | 0.00 | 0.00 | 0.00 | 93 | 1015.6 |
| 20260906041551 | 66 | 341 | 0.0 | 0.0 | 0.00 | 0.00 | 0.00 | 93 | 1015.6 |
| 20260906040038 | 66 | 341 | 0.0 | 0.0 | 0.00 | 0.00 | 0.00 | 92 | 1015.7 |
| 20260906034543 | 66 | 341 | 0.0 | 0.0 | 0.00 | 0.00 | 0.00 | 92 | 1015.7 |
| 20260906033036 | 67 | 341 | 0.0 | 0.0 | 0.00 | 0.00 | 0.00 | 92 | 1015.7 |
| 20260906031536 | 67 | 341 | 0.0 | 0.0 | 0.00 | 0.00 | 0.00 | 92 | 1015.8 |
| 20260906030033 | 68 | 341 | 0.0 | 0.0 | 0.00 | 0.00 | 0.00 | 91 | 1015.7 |
| 20260906024525 | 68 | 341 | 0.0 | 0.0 | 0.00 | 0.00 | 0.00 | 91 | 1015.7 |
| 20260906023021 | 69 | 341 | 0.0 | 0.0 | 0.00 | 0.00 | 0.00 | 90 | 1015.6 |
| 20260906021518 | 69 | 341 | 0.0 | 0.0 | 0.00 | 0.00 | 0.00 | 89 | 1015.5 |
| 20260906020015 | 69 | 341 | 0.0 | 0.0 | 0.00 | 0.00 | 0.00 | 88 | 1015.6 |
| 20260906014528 | 70 | 341 | 0.0 | 0.0 | 0.00 | 0.00 | 0.00 | 88 | 1015.3 |
| 20260906013008 | 71 | 341 | 0.0 | 0.0 | 0.00 | 0.00 | 0.00 | 87 | 1015.2 |
| 20260906011504 | 71 | 341 | 0.0 | 0.0 | 0.00 | 0.00 | 0.00 | 86 | 1014.9 |
| 20260906010005 | 72 | 341 | 0.0 | 0.0 | 0.00 | 0.00 | 0.00 | 84 | 1015.0 |
| 20260906004558 | 73 | 288 | 0.0 | 0.0 | 0.00 | 0.00 | 0.00 | 83 | 1014.9 |
| 20260906003055 | 73 | 329 | 0.0 | 0.0 | 0.00 | 0.00 | 0.00 | 82 | 1014.8 |
| 20260906001603 | 74 | 329 | 0.0 | 0.0 | 0.00 | 0.00 | 0.00 | 80 | 1014.6 |
| 20260906000049 | 75 | 329 | 0.0 | 0.0 | 0.00 | 0.00 | 0.00 | 79 | 1014.5 |
| 20260905234547 | 76 | 329 | 0.0 | 0.0 | 0.00 | 0.00 | 0.00 | 77 | 1014.3 |
| 20260905233046 | 77 | 329 | 0.0 | 0.0 | 0.00 | 0.00 | 0.00 | 73 | 1014.2 |
| 20260905231546 | 78 | 86 | 0.0 | 1.0 | 0.00 | 0.00 | 0.00 | 70 | 1014.0 |
| 20260905230047 | 79 | 50 | 0.0 | 3.0 | 0.00 | 0.00 | 0.00 | 70 | 1014.1 |
| 20260905224544 | 79 | 6 | 1.0 | 4.0 | 0.00 | 0.00 | 0.00 | 69 | 1014.0 |
| 20260905223041 | 79 | 72 | 1.0 | 4.0 | 0.00 | 0.00 | 0.00 | 69 | 1013.9 |
| 20260905221538 | 80 | 36 | 2.0 | 4.0 | 0.00 | 0.00 | 0.00 | 69 | 1013.5 |
| 20260905220033 | 80 | 82 | 0.0 | 4.0 | 0.00 | 0.00 | 0.00 | 68 | 1013.5 |
| 20260905214532 | 81 | 333 | 0.0 | 2.0 | 0.00 | 0.00 | 0.00 | 67 | 1013.3 |
| 20260905213029 | 81 | 35 | 0.0 | 1.0 | 0.00 | 0.00 | 0.00 | 68 | 1013.2 |
| 20260905211539 | 81 | 14 | 0.0 | 4.0 | 0.00 | 0.00 | 0.00 | 65 | 1013.1 |
| 20260905210026 | 82 | 297 | 1.0 | 4.0 | 0.00 | 0.00 | 0.00 | 65 | 1012.9 |
| 20260905204526 | 82 | 75 | 0.0 | 4.0 | 0.00 | 0.00 | 0.00 | 65 | 1013.0 |
| 20260905203035 | 82 | 303 | 2.0 | 9.0 | 0.00 | 0.00 | 0.00 | 66 | 1013.2 |
| 20260905201526 | 81 | 50 | 3.0 | 11.0 | 0.00 | 0.00 | 0.00 | 67 | 1013.2 |
| 20260905200017 | 81 | 281 | 2.0 | 9.0 | 0.00 | 0.00 | 0.00 | 67 | 1013.1 |
| 20260905194515 | 81 | 19 | 2.0 | 7.0 | 0.00 | 0.00 | 0.00 | 67 | 1013.3 |
| 20260905193021 | 81 | 85 | 3.0 | 7.0 | 0.00 | 0.00 | 0.00 | 68 | 1013.3 |
| 20260905191523 | 80 | 15 | 1.0 | 6.0 | 0.00 | 0.00 | 0.00 | 69 | 1013.4 |
| 20260905190009 | 80 | 160 | 3.0 | 8.0 | 0.00 | 0.00 | 0.00 | 69 | 1013.7 |
| 20260905184507 | 80 | 60 | 2.0 | 5.0 | 0.00 | 0.00 | 0.00 | 68 | 1014.0 |
| 20260905183005 | 81 | 25 | 0.0 | 3.0 | 0.00 | 0.00 | 0.00 | 70 | 1014.2 |
| 20260905181503 | 81 | 74 | 2.0 | 4.0 | 0.00 | 0.00 | 0.00 | 70 | 1014.4 |
| 20260905180104 | 81 | 102 | 1.0 | 4.0 | 0.00 | 0.00 | 0.00 | 69 | 1014.5 |
| 20260905174558 | 80 | 94 | 0.0 | 3.0 | 0.00 | 0.00 | 0.00 | 71 | 1014.5 |
| 20260905173055 | 80 | 61 | 2.0 | 5.0 | 0.00 | 0.00 | 0.00 | 70 | 1014.8 |
| 20260905171554 | 81 | 9 | 2.0 | 5.0 | 0.00 | 0.00 | 0.00 | 71 | 1014.7 |
| 20260905164551 | 80 | 68 | 1.0 | 5.0 | 0.00 | 0.00 | 0.00 | 74 | 1014.7 |
| 20260905163046 | 80 | 27 | 3.0 | 7.0 | 0.00 | 0.00 | 0.00 | 74 | 1014.9 |
| 20260905161544 | 80 | 32 | 0.0 | 5.0 | 0.00 | 0.00 | 0.00 | 72 | 1015.1 |
| 20260905160142 | 80 | 17 | 2.0 | 6.0 | 0.00 | 0.00 | 0.00 | 72 | 1015.4 |
| 20260905154540 | 80 | 27 | 2.0 | 5.0 | 0.00 | 0.00 | 0.00 | 71 | 1015.5 |